Date,TemperatureHighF,TemperatureAvgF,TemperatureLowF,DewpointHighF,DewpointAvgF,DewpointLowF,HumidityHigh,HumidityAvg,HumidityLow,PressureMaxIn,PressureMinIn,WindSpeedMaxMPH,WindSpeedAvgMPH,GustSpeedMaxMPH,PrecipitationSumIn
2013-12-1,39.9,36.9,33.8,15.2,11.2,7.0,41,34,29,30.18,29.97,12,3,12,0.12
2013-12-2,40.3,34.6,26.1,23.0,17.6,14.7,86,51,39,30.00,29.91,6,0,6,0.05
2013-12-3,47.8,33.3,24.1,37.1,22.4,10.0,96,69,24,29.97,29.88,6,0,6,0.00
2013-12-4,57.7,49.2,41.7,33.2,24.4,19.8,70,38,25,29.97,29.82,19,3,19,0.00
2013-12-5,63.0,49.5,32.9,40.7,28.7,18.3,67,45,36,30.09,29.79,17,5,17,0.00
2013-12-6,35.1,31.5,27.3,31.9,19.5,9.3,96,64,38,30.33,30.06,6,0,8,0.00
2013-12-7,28.2,24.7,22.8,23.1,3.6,-5.4,82,41,27,30.53,30.30,10,1,10,0.00
2013-12-8,28.8,25.2,21.6,9.9,1.1,-5.9,45,35,23,30.53,30.06,15,2,15,0.00
2013-12-9,35.6,32.6,27.1,33.8,17.3,1.2,93,56,32,30.12,29.88,14,4,14,0.08
2013-12-10,29.5,25.0,21.9,9.3,0.5,-6.4,53,35,23,30.12,29.97,18,4,18,0.00
2013-12-11,23.9,21.5,18.1,16.4,3.0,-11.4,76,45,25,30.33,30.12,16,4,16,0.00
2013-12-12,19.4,16.9,13.6,-1.8,-9.4,-13.6,48,30,25,30.39,30.12,15,4,15,0.00
2013-12-13,28.6,23.1,17.8,9.3,0.5,-12.1,51,37,25,30.30,30.09,15,3,15,0.00
2013-12-14,32.4,25.2,18.7,30.3,16.2,2.7,92,69,45,30.27,29.68,7,1,8,0.00
2013-12-15,32.2,25.4,18.5,30.6,20.6,1.1,98,83,44,29.97,29.65,15,2,15,0.00
2013-12-16,22.8,15.2,4.5,6.6,0.8,-10.2,66,53,42,30.18,29.97,12,1,12,0.00
2013-12-17,28.4,24.1,13.6,20.2,11.6,-1.5,77,59,43,30.06,29.88,12,3,13,0.00
2013-12-18,30.4,26.9,24.6,21.1,11.0,-0.1,79,52,33,30.15,29.97,22,5,22,0.00
2013-12-19,46.2,38.7,26.8,19.1,8.3,-3.7,39,28,22,30.06,29.88,19,4,22,0.08
2013-12-20,53.4,45.9,41.7,52.3,35.7,16.5,98,71,32,29.97,29.82,20,6,20,0.46
2013-12-21,56.3,46.7,36.7,55.2,45.6,35.7,98,96,94,29.88,29.65,14,3,15,1.57
2013-12-22,61.0,44.3,34.2,57.2,41.8,33.2,98,91,63,30.03,29.53,27,4,27,0.42
2013-12-23,38.7,33.2,29.1,37.6,26.6,12.6,97,78,48,30.33,30.00,15,3,15,0.04
2013-12-24,29.1,21.9,18.1,22.5,8.9,-3.3,93,59,35,30.50,30.18,15,3,15,0.00
2013-12-25,26.1,20.4,14.2,2.1,-4.3,-9.4,50,34,24,30.50,30.12,14,3,14,0.00
2013-12-26,32.7,27.7,24.6,24.3,10.2,0.1,80,49,32,30.33,30.03,18,4,18,0.00
2013-12-27,37.0,31.6,24.4,20.0,10.0,0.3,59,41,31,30.33,30.12,13,3,13,0.00
2013-12-28,50.9,43.5,36.3,15.5,11.1,8.0,34,26,21,30.18,30.00,19,5,19,0.04
2013-12-29,44.8,40.1,27.0,26.1,13.1,4.5,75,36,20,30.00,29.71,15,4,15,0.00
2013-12-30,26.8,19.5,17.1,19.2,-0.8,-9.0,75,41,28,30.27,29.88,10,2,10,0.00
2013-12-31,21.0,18.8,16.5,11.4,2.0,-6.3,68,48,34,30.27,29.97,15,4,15,0.00